Regional Weather Roundup
Issued by NWS

Home | Current Version | Previous Version | Text Only | Print | Product List | Glossary On
Versions: 1 2 3 4 5 6 7 8 9 10 11 12 13 14 15 16 17 18 19 20 21 22 23 24 25 26 27 28 29 30 31 32 33 34 35 36 37 38 39 40 41 42 43 44 45 46 47 48 49 50
000
ASUS43 KMKX 230521
RWRWI

WISCONSIN REGIONAL WEATHER ROUNDUP
NATIONAL WEATHER SERVICE MILWAUKEE/SULLIVAN WI
1200 AM CDT SAT SEP 23 2017

NOTE: "FAIR" INDICATES FEW OR NO CLOUDS BELOW 12,000 FEET WITH NO
SIGNIFICANT WEATHER AND/OR OBSTRUCTIONS TO VISIBILITY.

WIZ001-002-006>008-014>016-023>028-230600-
NORTHWEST WISCONSIN

CITY           SKY/WX    TMP DP  RH WIND       PRES   REMARKS
SUPERIOR ARPT  CLEAR     61  61  99 N5        29.79S
ASHLAND        CLEAR     80  67  64 S20G25    29.81S HX  82
HAYWARD        CLEAR     75  66  73 S8        29.88R
SIREN          PTCLDY    81  65  58 S13G24    29.85R HX  82
CUMBERLAND     CLEAR     70  63  78 S6        29.90R
RICE LAKE      CLEAR     74  65  73 SE3       29.91S
CHETEK         CLEAR     75  67  76 S5        29.90S
LADYSMITH      PTCLDY    74  67  77 S6        29.94R
EAU CLAIRE     CLEAR     77  66  68 S7        29.90R
MENOMONIE      CLEAR     80  65  61 S9        29.90R HX  82
NEW RICHMOND   CLOUDY    79  65  62 S13       29.88R HX  81
OSCEOLA        CLOUDY    80  66  62 S12       29.89R HX  82
$$

WIZ003>005-009-010-017-018-230600-
NORTH CENTRAL WISCONSIN

CITY           SKY/WX    TMP DP  RH WIND       PRES   REMARKS
MANITOWISH WTR CLEAR     72  70  94 S9        29.93F
ARBOR VITAE    CLEAR     73  67  80 S13G18    29.94S
WOODRUFF       CLEAR     73  67  80 S13G18    29.94S
RHINELANDER    CLEAR     73  66  78 SW8       29.97F
EAGLE RIVER    PTCLDY    69  66  90 S3        29.95F
LAND O LAKES   CLEAR     70  65  83 S6        29.97S
PHILLIPS       PTCLDY    75  68  79 S12       29.92F
TOMAHAWK       CLEAR     67  64  90 CALM      29.96F
MEDFORD        CLEAR     70  65  83 S8        29.96S
MERRILL        CLEAR     75  67  74 S6        29.97F
$$

WIZ029-030-035-036-043>047-230600-
CENTRAL WISCONSIN

CITY           SKY/WX    TMP DP  RH WIND       PRES   REMARKS
WAUSAU         CLEAR     76  66  71 S9        29.96S
MOSINEE        CLEAR     72  64  78 S9        29.99S
MARSHFIELD     CLEAR     72  64  76 S8        29.96F
STEVENS POINT  CLEAR     73  64  72 S7        29.99S
WAUPACA        CLEAR     70  67  90 CALM      29.98F
WAUTOMA        CLEAR     70  66  87 S5        29.99F
WISC RAPIDS    CLEAR     76  65  68 S7        29.98F
CAMP DOUGLAS   CLEAR     74  66  76 S8        29.97S
$$

WIZ011>013-019>022-031-037>040-048>050-230600-
NORTHEAST WISCONSIN

CITY           SKY/WX    TMP DP  RH WIND       PRES   REMARKS
ANTIGO         CLEAR     68  65  92 S8        30.00S
SHAWANO        CLEAR     73  69  85 CALM      29.97S
OCONTO         CLEAR     68  66  93 CALM      29.97F
STURGEON BAY   CLEAR     71  66  84 S10       29.99F
GREEN BAY      CLEAR     72  69  90 S6        29.99S
MANITOWOC      CLEAR     70  66  87 S5        30.01S
APPLETON       CLEAR     72  63  73 S7        29.99S
CLINTONVILLE   CLEAR     70  66  88 S5        29.98F
OSHKOSH        CLEAR     69  65  86 S7        29.99F
$$

WIZ032>034-041-042-053>061-230600-
SOUTHWEST WISCONSIN

CITY           SKY/WX    TMP DP  RH WIND       PRES   REMARKS
LA CROSSE      CLEAR     79  68  69 S8        29.92F HX  81
SPARTA         CLEAR     79  66  65 S3        29.96S HX  81
VIROQUA        CLEAR     75  67  75 S9        29.99S
BOSCOBEL       CLEAR     77  66  68 VRB5      29.97F
PRAIRIE DU CHI CLEAR     78  63  59 E5        29.96S HX  80
PLATTEVILLE    CLEAR     74  66  77 SE8       30.01F
$$

WIZ056-057-062-063-064-067-068-230600-
SOUTH CENTRAL WISCONSIN

CITY           SKY/WX    TMP DP  RH WIND       PRES   REMARKS
REEDSBURG      CLEAR     74  65  73 S5        29.99S
BARABOO/DELLS  CLEAR     75  63  66 S7        30.00S
LONE ROCK      CLEAR     68  66  93 E6        29.99S
MINERAL POINT  CLEAR     72  68  88 SE5       30.02S
MADISON        CLEAR     74  65  73 S5        30.01S
MIDDLETON      CLEAR     74  64  73 CALM      30.02S
WATERTOWN      CLEAR     69  65  85 SE3       30.02S
MONROE         CLEAR     72  63  73 S8        30.03S
JANESVILLE     CLEAR     70  61  73 SE3       30.02S
$$

WIZ051-052-058>065-066-070>072-230600-
SOUTHEAST WISCONSIN

CITY           SKY/WX    TMP DP  RH WIND       PRES   REMARKS
MILWAUKEE      CLEAR     77  67  71 S7        30.03S
WAUKESHA       CLEAR     72  63  73 S5        30.05S
MILWAUKEE/TIMM CLEAR     73  63  68 S5        30.04S
RACINE         CLEAR     75  67  76 S5        30.05S
BURLINGTON     CLEAR     65  65 100 CALM      30.04S
KENOSHA        CLEAR     74  66  76 S5        30.04S
FOND DU LAC    CLEAR     71  64  78 S7        30.01S
SHEBOYGAN      CLEAR     64  64 100 CALM      30.02S FOG
WEST BEND        N/A     68  66  94 CALM      30.03S
JUNEAU         CLEAR     70  63  80 SE5       30.03F
$$

LSZ147-162-230600-
LAKE SUPERIOR

STATION/POSITION TIME  TEMP    WIND        PRES    WAVE
                       AIR SEA DIR/SP/G            HT/PER
                 (UTC) (F)     (DEG/KT/KT) (MB)    (FT/S)
W MID LAKE BUOY  0450   63 54  150/ 10/ 12 1008.5F   1/ 3
DEVILS ISLAND    0500          190/ 11/ 15 1008.1F
SAXON HARBOR     0430   81     200/ 13/ 25 1008.5S
$$

LMZ867-665-643>646-230600-
LAKE MICHIGAN

STATION/POSITION TIME  TEMP    WIND        PRES    WAVE
                       AIR SEA DIR/SP/G            HT/PER
                 (UTC) (F)     (DEG/KT/KT) (MB)    (FT/S)
S GREEN BAY BUOY 0430   71 67  190/ 10/ 12 1015.0F
N MID LAKE BUOY  0450   68 66  160/  8/  8 1015.8F   2/ 4
NORTHPORT PIER   0440   71     170/  5/ 12 1014.6F
KEWAUNEE LAKESHO 0454   65     180/  6/  6 1015.0F
SHEBOYGAN LAKESH 0500   74     190/  6/  7 1016.0S
PORT WASHINGTON  0440   71      CALM  /  3 1017.3S
ATWATER BUOY     0409   72 65  180/ 10/ 12 1016.9R
MILWAUKEE LAKESH 0500   78     220/  5/  7   N/A
S MID LAKE BUOY  0450   74 70  150/  8/  8 1017.0R   0
KENOSHA   LAKESH 0500   78     190/  9/ 12 1016.6
$$

TC  - TEMPERATURE IN CELSIUS
VSB - VISIBILITY IN STATUTE MILES
WCI - WIND CHILL INDEX
HX  - HEAT INDEX




USA.gov is the U.S. government's official web portal to all federal, state and local government web resources and services.